COSMOS 1275 DEB, 12673

Orbit data source: Space-Track

COSMOS 1275 DEB, 12673 is space debris in LEO originally from a launch on Thu, 04 Jun 1981 UTC launched from the Plesetsk Missile And Space Complex (PKMTR). Debris objects in space refer to the collection of defunct objects orbiting the Earth. Examples of debris include non-operational satellites, rocket bodies, and fragments generated from explosions, collisions, or faulty payload assembly.

Loading next visibility...
Identifier
12673, 1981-053AD
Orbit
LEO
Last TLE update
8 hours ago
Origin
Manufacturer
Unknown
Mission
Spacecraft
Bus & Motor
Unknown
Mass
Unknown
Launch date (UTC)
1981-06-04 (44 years ago)
Launch vehicle
Unknown
Launch site
Plesetsk Missile And Space Complex (PKMTR)
Object type
Payload
Rocket body
Debris
Shape & HBR
Unknown
Radar Cross Section
Medium (>0.1 m² and <1 m²)

Expand to show TLE details & history

TLE from 8 hours ago
0 COSMOS 1275 DEB
1 12673U 81053AD  25198.93174030  .00001540  00000-0  84868-3 0  9995
2 12673  82.8495  48.4363 0039844 117.3647  19.6100 14.10577444227748
Epoch: 2025-07-17T22:21Z
TLE epoch observation values (Epoch: 2025-07-17T22:21:42.361Z)
Latitude
42.54868°
Longitude
-49.55789°
Altitude
836.509 km
Speed
7.453 km/s
True Right ascension
14h 47m 26s
True Declination
42° 22' 45"
Sunlit
Object was in daylight at epoch
Visualization orbit readout
Latitude
74.19566°
Longitude
-69.41711°
Altitude
841.925 km
Speed
7.453 km/s
Apparent Right ascension
08h 55m 43s
Apparent Declination
28° 23' 25"
Sunlit
Object is in daylight
Visualization observer readout
Local Sidereal Time
19:28:01
Azimuth
339.707° N
Elevation
-18.714°
Doppler factor
1
Orbital elements
Apogee altitude
883.317 km
Perigee altitude
825.682 km
Semi-major axis
7,232.637 km
Eccentricity
0.00398
Inclination
82.8495°
RAAN
48.4363°
Arg. of periapsis
117.3647°
True anomaly
19.76396°
Mean anomaly
19.61°
Eccentric anomaly
19.68691°
Mean motion
3.52857 °/min
Orbital period
102.02 mins
BSTAR
0.00084868
Loading maneuver chart data...
Loading SW <> Apogee altitude chart data...
Loading historical data...
Loading historical data...
Loading historical data...
Loading historical data...
Loading historical data...
Loading historical data...
Loading historical data...
|